EA1AY-13 Weather Reports


Display with metric or nautical units.
time (UTC)temp
F
wind
direction
speed
MPH
gust
MPH
rain 1hr
in
rain 24hr
in
rain mn
in
humidity
%
barometer
mb
20260503173016 61 3.0 9.0 0.00 0.27 0.19 76
20260503172035 61 4.0 10.0 0.00 0.27 0.19 75
20260503171015 61 5.0 13.0 0.00 0.27 0.19 75
20260503131016 58 3.0 6.0 0.00 0.27 0.19 80 1014.8
20260503081516 0 0.0 0.0 0.00 0.28 0.19
20260503080515 0 0.0 0.0 0.00 0.28 0.19
20260503072536 0 0.0 0.0 0.00 0.28 0.19
20260503071516 0 0.0 0.0 0.00 0.28 0.19
20260503054516 0 0.0 0.0 0.00 0.28 0.19
20260503053515 0 0.0 0.0 0.00 0.28 0.19
20260503052015 0 0.0 0.0 0.00 0.28 0.19
20260503051015 0 0.0 0.0 0.00 0.28 0.19
20260503045515 0 0.0 0.0 0.00 0.28 0.19
20260503044515 0 0.0 0.0 0.00 0.28 0.19
20260503043016 0 0.0 0.0 0.00 0.28 0.19
20260503042015 0 0.0 0.0 0.00 0.28 0.19
20260503040515 0 0.0 0.0 0.00 0.28 0.19
20260503035515 0 0.0 0.0 0.00 0.28 0.19
20260503034015 0 0.0 0.0 0.00 0.28 0.19
20260503033015 0 0.0 0.0 0.00 0.28 0.19
20260503031515 0 0.0 0.0 0.00 0.28 0.19
20260503030515 0 0.0 0.0 0.00 0.28 0.19
20260503025015 0 0.0 0.0 0.00 0.28 0.19
20260503024015 0 0.0 0.0 0.00 0.28 0.19
20260503022515 0 0.0 0.0 0.00 0.28 0.19
20260503021515 0 0.0 0.0 0.00 0.28 0.19
20260503020016 0 0.0 0.0 0.02 0.28 0.19
20260503015015 0 0.0 0.0 0.04 0.28 0.19
20260503013515 0 0.0 0.0 0.04 0.28 0.19
20260503012516 56 0.0 0.0 0.04 0.28 0.19 11 1014.9
20260503010516 56 0.0 0.0 0.04 0.27 0.18 14 1015.1
20260503005515 56 0.0 0.0 0.05 0.24 0.16 14 1015.1
20260503004516 56 0.0 0.0 0.07 0.24 0.15 14 1015.1
20260503003515 56 0.0 0.0 0.07 0.24 0.15 14 1015.2
20260503002516 56 0.0 0.0 0.07 0.24 0.15 14 1015.3
20260503001515 56 0.0 0.0 0.07 0.24 0.15 15 1015.4
20260503000515 56 0.0 0.0 0.06 0.24 0.14 16 1015.5
20260502235515 56 0.0 0.0 0.03 0.24 0.11 17 1015.5
20260502234516 56 0.0 0.0 0.00 0.20 0.08 16 1015.5
20260502233516 56 0.0 0.0 0.00 0.20 0.08 16 1015.6
20260502232515 56 0.0 0.0 0.02 0.20 0.08 16 1015.5
20260502231515 56 0.0 0.0 0.06 0.25 0.08 18 1015.5
20260502230516 56 0.0 2.0 0.08 0.29 0.08 18 1015.6
20260502225515 56 227 0.0 3.0 0.08 0.29 0.08 19 1015.5
20260502224536 56 0.0 0.0 0.09 0.29 0.08 20 1015.5
20260502223535 56 0.0 0.0 0.13 0.29 0.08 20 1015.6
20260502222535 56 0.0 0.0 0.11 0.28 0.06 21 1015.7
20260502221515 56 0.0 0.0 0.06 0.23 0.02 21 1015.8
20260502220515 56 265 0.0 1.0 0.05 0.21 0.00 22 1015.9
20260502215516 56 0.0 0.0 0.05 0.21 0.21 22 1015.9
20260502214516 56 0.0 0.0 0.03 0.20 0.20 25 1015.9
20260502213517 56 0.0 0.0 0.00 0.17 0.17 25 1015.9
20260502212516 56 0.0 1.0 0.00 0.17 0.17 26 1015.9
20260502211516 56 271 0.0 2.0 0.00 0.17 0.17 27 1015.9
20260502210536 56 239 0.0 1.0 0.00 0.17 0.17 28 1015.8
20260502205536 57 226 1.0 1.0 0.00 0.17 0.17 31 1015.7
20260502204515 57 0.0 0.0 0.00 0.17 0.17 32 1015.7
20260502203516 57 0.0 0.0 0.00 0.17 0.17 34 1015.7
20260502202516 57 0.0 0.0 0.01 0.17 0.17 35 1015.6
20260502201515 57 0.0 0.0 0.01 0.17 0.17 40 1015.4
20260502200516 57 229 0.0 1.0 0.01 0.17 0.17 44 1015.3
20260502195516 58 0.0 0.0 0.02 0.17 0.17 47 1015.3
20260502194516 58 0.0 0.0 0.02 0.17 0.17 51 1015.3
20260502193516 58 0.0 0.0 0.02 0.17 0.17 56 1015.3
20260502192556 58 0.0 0.0 0.02 0.16 0.16 61 1015.3
20260502191536 58 0.0 0.0 0.02 0.16 0.16 66 1015.2
20260502190516 58 0.0 0.0 0.02 0.16 0.16 70 1015.3
20260502185516 59 0.0 0.0 0.02 0.15 0.15 73 1015.3
20260502184536 59 0.0 0.0 0.02 0.15 0.15 77
20260502183516 59 233 1.0 4.0 0.01 0.14 0.14 79
20260502182516 60 263 0.0 2.0 0.00 0.13 0.13 79
20260502181517 60 242 1.0 5.0 0.00 0.13 0.13 80
20260502180516 60 230 2.0 5.0 0.00 0.13 0.13 80